Regional Weather Roundup
Issued by NWS

Home | Current Version | Previous Version | Text Only | Print | Product List | Glossary On
Versions: 1 2 3 4 5 6 7 8 9 10 11 12 13 14 15 16 17 18 19 20 21 22 23 24 25 26 27 28 29 30 31 32 33 34 35 36 37 38 39 40 41 42 43 44 45 46 47 48 49 50
000
ASUS43 KMKX 210111
RWRWI

WISCONSIN REGIONAL WEATHER ROUNDUP
NATIONAL WEATHER SERVICE MILWAUKEE/SULLIVAN WI
700 PM CST FRI JAN 20 2017

NOTE: "FAIR" INDICATES FEW OR NO CLOUDS BELOW 12,000 FEET WITH NO
SIGNIFICANT WEATHER AND/OR OBSTRUCTIONS TO VISIBILITY.

WIZ001-002-006>008-014>016-023>028-210200-
NORTHWEST WISCONSIN

CITY           SKY/WX    TMP DP  RH WIND       PRES   REMARKS
SUPERIOR ARPT  CLOUDY    34  34 100 E7        29.61S FOG     WCI  28
ASHLAND        LGT RAIN  36  35  96 E3        29.64R FOG
HAYWARD        CLOUDY    37  34  89 S6        29.60S WCI  32
SIREN          CLOUDY    35  35  99 SE3       29.58F FOG
CUMBERLAND     CLOUDY    34  32  93 SE5       29.57F FOG     WCI  30
RICE LAKE      DRIZZLE   35  34  98 E6        29.60F WCI  30
CHETEK         DRIZZLE   34  34 100 SE3       29.60S
LADYSMITH      CLOUDY    36  35  98 SE6       29.62S FOG     WCI  31
EAU CLAIRE     CLOUDY    35  34  96 SE7       29.59F FOG     WCI  29
MENOMONIE        N/A    N/A N/A N/A MISG        N/A
NEW RICHMOND   FOG       34  34 100 SE5       29.57F VSB 3/4 WCI  30
OSCEOLA        CLOUDY    35  35 100 SE6       29.60F FOG     WCI  30
$$

WIZ003>005-009-010-017-018-210200-
NORTH CENTRAL WISCONSIN

CITY           SKY/WX    TMP DP  RH WIND       PRES   REMARKS
MANITOWISH WTR FLURRIES  32  32 100 CALM      29.61S
ARBOR VITAE    CLOUDY    37  36  96 CALM      29.61F
WOODRUFF       CLOUDY    37  36  96 CALM      29.61F
RHINELANDER    CLOUDY    34  34 100 SE5       29.62S WCI  30
EAGLE RIVER    CLOUDY    33  33 100 CALM      29.61S
LAND O LAKES   MIX PCPN  34  34 100 CALM      29.63S
PHILLIPS       CLOUDY    33  33 100 SE3       29.60F FOG
TOMAHAWK       CLOUDY    33  32  96 CALM      29.62F FOG
MEDFORD        CLOUDY    33  32  98 SE6       29.61S FOG     WCI  27
MERRILL        CLOUDY    33  33 100 SE5         N/A  FOG     WCI  29
$$

WIZ029-030-035-036-043>047-210200-
CENTRAL WISCONSIN

CITY           SKY/WX    TMP DP  RH WIND       PRES   REMARKS
WAUSAU         CLOUDY    34  33  96 SE7       29.62F WCI  28
MOSINEE        CLOUDY    34  34 100 E7        29.64S FOG     WCI  28
MARSHFIELD     CLOUDY    33  32  96 E9        29.60F FOG     WCI  25
STEVENS POINT  CLOUDY    32  32 100 E5        29.64F FOG     WCI  27
WAUPACA        CLOUDY    36  34  92 CALM      29.66F FOG
WAUTOMA        CLOUDY    35  34  96 E5        29.65F FOG     WCI  31
WISC RAPIDS    CLOUDY    34  34 100 SE7       29.64S FOG     WCI  28
CAMP DOUGLAS   CLOUDY    36  34  93 SE7       29.62S FOG     WCI  30
$$

WIZ011>013-019>022-031-037>040-048>050-210200-
NORTHEAST WISCONSIN

CITY           SKY/WX    TMP DP  RH WIND       PRES   REMARKS
ANTIGO         FOG       32  32 100 SE7       29.64S VSB 1/2 WCI  26
SHAWANO        CLOUDY    36  34  94 CALM      29.68S FOG
OCONTO         CLOUDY    32  32  99 E5        29.70R WCI  27
STURGEON BAY   CLOUDY    34  34 100 SE3       29.70R FOG
GREEN BAY      CLOUDY    35  35 100 N3        29.68R FOG
MANITOWOC      CLOUDY    36  35  96 CALM      29.69F FOG
APPLETON         N/A     34  34 100 E3        29.66S FOG
CLINTONVILLE   CLOUDY    34  34 100 E5        29.68S FOG     WCI  30
OSHKOSH        CLOUDY    34  33  96 SE5       29.66S FOG     WCI  30
$$

WIZ032>034-041-042-053>061-210200-
SOUTHWEST WISCONSIN

CITY           SKY/WX    TMP DP  RH WIND       PRES   REMARKS
LA CROSSE      CLOUDY    39  36  89 SE8       29.60S FOG     WCI  33
SPARTA         CLOUDY    34  34 100 E5        29.62S FOG     WCI  30
VIROQUA        CLOUDY    34  34 100 E8        29.59S VSB 1/2 WCI  28
BOSCOBEL       CLOUDY    38  36  92 CALM      29.63R FOG
PRAIRIE DU CHI CLOUDY    37  36  96 CALM      29.61R FOG
PLATTEVILLE    CLOUDY    36  36 100 E7        29.61S VSB 1/4 WCI  30
$$

WIZ056-057-062-063-064-067-068-210200-
SOUTH CENTRAL WISCONSIN

CITY           SKY/WX    TMP DP  RH WIND       PRES   REMARKS
REEDSBURG      CLOUDY    35  35 100 CALM      29.62S FOG
BARABOO/DELLS  FOG       35  35  99 E5        29.62S VSB 1/2 WCI  31
LONE ROCK      FOG       36  35  96 E5        29.63R VSB 1/2 WCI  32
MINERAL POINT  FOG       37  37 100 E6        29.61R VSB 1/4 WCI  33
MADISON        FOG       36  36 100 E6        29.64S VSB 1   WCI  31
MIDDLETON      CLOUDY    37  37 100 E5        29.63S VSB 1   WCI  34
WATERTOWN      CLOUDY    36  36 100 E5        29.64S FOG     WCI  32
MONROE         SNOW      36  36 100 E5        29.61S VSB 1/4 WCI  32
JANESVILLE     FOG       37  37 100 E9        29.64R VSB 1/4 WCI  31
$$

WIZ051-052-058>065-066-070>072-210200-
SOUTHEAST WISCONSIN

CITY           SKY/WX    TMP DP  RH WIND       PRES   REMARKS
MILWAUKEE      FOG       38  36  92 SE6       29.67F VSB 1/4 WCI  33
WAUKESHA       FOG       34  34 100 SE5       29.66S VSB 3/4 WCI  30
MILWAUKEE/TIMM CLOUDY    36  34  93 SE5       29.67F FOG     WCI  32
RACINE         FOG       37  35  92 E5        29.68S VSB 1/4 WCI  33
KENOSHA        FOG       37  36  96 E6        29.66S VSB 1/4 WCI  32
FOND DU LAC    CLOUDY    36  33  89 SE3       29.66S FOG
SHEBOYGAN      CLOUDY    35  34  96 S5        29.67F FOG     WCI  31
WEST BEND      FOG       34  34 100 CALM      29.66S VSB 1/4
JUNEAU         FOG       34  34  99 E5        29.65F VSB 1/4 WCI  30
$$

LSZ147-162-210200-
LAKE SUPERIOR

STATION/POSITION TIME  TEMP    WIND        PRES    WAVE
                       AIR SEA DIR/SP/G            HT/PER
                 (UTC) (F)     (DEG/KT/KT) (MB)    (FT/S)
DEVILS ISLAND    0000   34      70/  6/  7 1004.3R
PORT WING        0030   33      50/  3/  5 1003.7R
SAXON HARBOR     0030   34        CALM     1003.4S
$$

LMZ867-665-643>646-210200-
LAKE MICHIGAN

STATION/POSITION TIME  TEMP    WIND        PRES    WAVE
                       AIR SEA DIR/SP/G            HT/PER
                 (UTC) (F)     (DEG/KT/KT) (MB)    (FT/S)
NORTHPORT PIER   0040   33      30/  2/  8 1005.1F
SISTER BAY       2350   33      40/  4/  7   N/A
KEWAUNEE LAKESHO 0042   35      20/  2/  5   N/A
SHEBOYGAN LAKESH 0100   35     160/  3/  3 1005.3F
PORT WASHINGTON  0030   36     160/  4/  5 1006.1S
KENOSHA   LAKESH 0100   35      90/  4/  5 1005.1
$$

TC  - TEMPERATURE IN CELSIUS
VSB - VISIBILITY IN STATUTE MILES
WCI - WIND CHILL INDEX
HX  - HEAT INDEX




USA.gov is the U.S. government's official web portal to all federal, state and local government web resources and services.